User: anonymous   Login
Location: Hepcat Sky Observatory
(29.9800°N, 95.6500°W)
Time: 11:22:08
(UTC-06:00)
Language:

Cosmos 1602 Rocket - Orbit

View from above orbital plane
View from above orbital plane
View from above satellite
View from above satellite

Ground track
Ground track

The orbit data is extracted from the following two-line orbital elements,

1 15332U 84105B   14330.52956034  .00000584  00000-0  68992-4 0  8205
2 15332 082.5339 340.5991 0021070 204.2445 322.9788 14.82872804628197
Epoch (UTC): 26 November 2014 12:42:34
Eccentricity: 0.0021070
inclination: 82.5339°
perigee height: 605 km
apogee height: 635 km
right ascension of ascending node: 340.5991°
argument of perigee: 204.2445°
revolutions per day: 14.82872804
mean anomaly at epoch: 322.9788°
orbit number at epoch: 62819

The dashed part of the orbit path shows where the satellite is in the earth's shadow,  

DLR